Satellite: WO-39
Catalog number: 26061
Epoch time:      100356.19222370
Element set:     138 
Inclination:      100.1921 deg
RA of node:       252.1593 deg
Eccentricity:    0.0036569
Arg of perigee:   345.8934 deg
Mean anomaly:      14.1222 deg
Mean motion:   14.35183626 rev/day
Decay rate:    1.1119E-005 rev/day^2
Epoch rev:            4719
Checksum:              284

Satellite: ISS
Catalog number: 25544
Epoch time:      100358.15531250
Element set:     420 
Inclination:       51.5737 deg
RA of node:       259.8734 deg
Eccentricity:    0.0007404
Arg of perigee:   260.9348 deg
Mean anomaly:     281.1129 deg
Mean motion:   15.65927393 rev/day
Decay rate:    4.3755E-004 rev/day^2
Epoch rev:           11953
Checksum:              414

Satellite: POSAT
Catalog number: 22829
Epoch time:      100357.20385164
Element set:     861 
Inclination:       98.3783 deg
RA of node:        48.2009 deg
Eccentricity:    0.0010988
Arg of perigee:    51.8786 deg
Mean anomaly:     308.3386 deg
Mean motion:   14.28925656 rev/day
Decay rate:    3.8899E-006 rev/day^2
Epoch rev:           37743
Checksum:              358

Satellite: JAWSAT
Catalog number: 26065
Epoch time:      100355.88636773
Element set:     108 
Inclination:      100.1939 deg
RA of node:       251.5794 deg
Eccentricity:    0.0037995
Arg of perigee:   348.9123 deg
Mean anomaly:      11.1216 deg
Mean motion:   14.34432024 rev/day
Decay rate:    4.7899E-006 rev/day^2
Epoch rev:            4712
Checksum:              410

Satellite: OPAL
Catalog number: 26062
Epoch time:      100356.70018964
Element set:     405 
Inclination:      100.2182 deg
RA of node:       263.5965 deg
Eccentricity:    0.0022433
Arg of perigee:   347.6221 deg
Mean anomaly:      12.4990 deg
Mean motion:   14.81378842 rev/day
Decay rate:    2.3733E-003 rev/day^2
Epoch rev:            4779
Checksum:              290

Satellite: OCS
Catalog number: 26063
Epoch time:      100355.72869646
Element set:     109 
Inclination:      100.1944 deg
RA of node:       251.3784 deg
Eccentricity:    0.0037337
Arg of perigee:   348.1181 deg
Mean anomaly:      11.9124 deg
Mean motion:   14.34494007 rev/day
Decay rate:    4.0599E-006 rev/day^2
Epoch rev:            4710
Checksum:              293

Satellite: UNK3
Catalog number: 26093
Epoch time:      100355.69053115
Element set:     156 
Inclination:      100.1853 deg
RA of node:       251.6371 deg
Eccentricity:    0.0037174
Arg of perigee:   348.5737 deg
Mean anomaly:      11.4590 deg
Mean motion:   14.36078993 rev/day
Decay rate:    3.7270E-005 rev/day^2
Epoch rev:            4495
Checksum:              304

Satellite: UNK4
Catalog number: 26094
Epoch time:      100355.15341185
Element set:     102 
Inclination:      100.1892 deg
RA of node:       250.7433 deg
Eccentricity:    0.0037260
Arg of perigee:   350.8318 deg
Mean anomaly:       9.2180 deg
Mean motion:   14.35223170 rev/day
Decay rate:    1.2769E-005 rev/day^2
Epoch rev:            4434
Checksum:              261

Satellite: SAUDISAT 1A
Catalog number: 26548
Epoch time:      100356.20758273
Element set:     45 
Inclination:       64.5588 deg
RA of node:       289.4226 deg
Eccentricity:    0.0010825
Arg of perigee:    13.7759 deg
Mean anomaly:     346.3645 deg
Mean motion:   14.75965315 rev/day
Decay rate:    2.5310E-005 rev/day^2
Epoch rev:            1265
Checksum:              315

Satellite: UNISAT
Catalog number: 26547
Epoch time:      100355.35171771
Element set:     48 
Inclination:       64.5614 deg
RA of node:       293.1774 deg
Eccentricity:    0.0018221
Arg of perigee:    66.6324 deg
Mean anomaly:     293.6705 deg
Mean motion:   14.73224692 rev/day
Decay rate:    3.6149E-005 rev/day^2
Epoch rev:            1252
Checksum:              397

Satellite: SAUDISAT 1B
Catalog number: 26549
Epoch time:      100355.91949131
Element set:     46 
Inclination:       64.5515 deg
RA of node:       291.1301 deg
Eccentricity:    0.0014693
Arg of perigee:    58.8262 deg
Mean anomaly:     301.4281 deg
Mean motion:   14.73856425 rev/day
Decay rate:    1.9880E-005 rev/day^2
Epoch rev:            1260
Checksum:              296

Satellite: TIUNGSAT-1
Catalog number: 26545
Epoch time:      100355.39271839
Element set:     49 
Inclination:       64.5607 deg
RA of node:       292.3793 deg
Eccentricity:    0.0012197
Arg of perigee:    38.0148 deg
Mean anomaly:     322.1842 deg
Mean motion:   14.74766703 rev/day
Decay rate:    2.8380E-005 rev/day^2
Epoch rev:            1252
Checksum:              310

Satellite: MEGSAT-1
Catalog number: 26546
Epoch time:      100300.90113007
Element set:     44 
Inclination:       64.5565 deg
RA of node:        98.4503 deg
Eccentricity:    0.0004641
Arg of perigee:    22.5030 deg
Mean anomaly:     337.6284 deg
Mean motion:   14.76095605 rev/day
Decay rate:    2.0170E-005 rev/day^2
Epoch rev:             450
Checksum:              253

Satellite: DNEPR-1 R/B
Catalog number: 26550
Epoch time:      100300.95678734
Element set:     48 
Inclination:       64.5580 deg
RA of node:       111.6189 deg
Eccentricity:    0.0521266
Arg of perigee:   122.5374 deg
Mean anomaly:     242.7151 deg
Mean motion:   13.78368992 rev/day
Decay rate:    7.2100E-006 rev/day^2
Epoch rev:             421
Checksum:              293

Satellite: DNEPR-1 DEB
Catalog number: 26551
Epoch time:      100300.94213223
Element set:     62 
Inclination:       64.5561 deg
RA of node:        98.1324 deg
Eccentricity:    0.0007997
Arg of perigee:   337.0117 deg
Mean anomaly:      23.0632 deg
Mean motion:   14.77613920 rev/day
Decay rate:    9.2529E-005 rev/day^2
Epoch rev:             450
Checksum:              273

Satellite: NOAA 9
Catalog number: 15427
Epoch time:      100357.99435066
Element set:     712 
Inclination:       98.7652 deg
RA of node:        68.0333 deg
Eccentricity:    0.0014554
Arg of perigee:   309.9755 deg
Mean anomaly:      50.0140 deg
Mean motion:   14.14419733 rev/day
Decay rate:    3.1100E-006 rev/day^2
Epoch rev:           82678
Checksum:              309

Satellite: NOAA 10
Catalog number: 16969
Epoch time:      100357.99839554
Element set:     689 
Inclination:       98.6593 deg
RA of node:       341.1456 deg
Eccentricity:    0.0011757
Arg of perigee:   221.2316 deg
Mean anomaly:     138.7977 deg
Mean motion:   14.26066766 rev/day
Decay rate:    5.5700E-006 rev/day^2
Epoch rev:           74161
Checksum:              360

Satellite: NOAA 11
Catalog number: 19531
Epoch time:      100357.97508115
Element set:     531 
Inclination:       98.9843 deg
RA of node:        63.0939 deg
Eccentricity:    0.0011154
Arg of perigee:   276.0020 deg
Mean anomaly:      83.9881 deg
Mean motion:   14.13802994 rev/day
Decay rate:    3.0500E-006 rev/day^2
Epoch rev:           63148
Checksum:              303

Satellite: NOAA 12
Catalog number: 21263
Epoch time:      100358.00159425
Element set:     977 
Inclination:       98.5607 deg
RA of node:       348.7262 deg
Eccentricity:    0.0012717
Arg of perigee:   151.3790 deg
Mean anomaly:     208.8090 deg
Mean motion:   14.23796685 rev/day
Decay rate:    5.7500E-006 rev/day^2
Epoch rev:           49909
Checksum:              333

Satellite: NOAA 13
Catalog number: 22739
Epoch time:      100336.04119143
Element set:     350 
Inclination:       99.2092 deg
RA of node:       342.0743 deg
Eccentricity:    0.0009825
Arg of perigee:   347.7826 deg
Mean anomaly:      12.3104 deg
Mean motion:   14.11474530 rev/day
Decay rate:    6.0100E-006 rev/day^2
Epoch rev:           37663
Checksum:              380

Satellite: NOAA 14
Catalog number: 23455
Epoch time:      100357.96025894
Element set:     566 
Inclination:       99.1628 deg
RA of node:       340.2817 deg
Eccentricity:    0.0008903
Arg of perigee:   284.8971 deg
Mean anomaly:      75.1213 deg
Mean motion:   14.12535763 rev/day
Decay rate:    3.5099E-006 rev/day^2
Epoch rev:           30825
Checksum:              334

Satellite: NOAA 15
Catalog number: 25338
Epoch time:      100357.99133833
Element set:     20 
Inclination:       98.6190 deg
RA of node:        23.0732 deg
Eccentricity:    0.0011652
Arg of perigee:    87.1739 deg
Mean anomaly:     273.0773 deg
Mean motion:   14.23434742 rev/day
Decay rate:    3.1899E-006 rev/day^2
Epoch rev:           13572
Checksum:              308

Satellite: NOAA 16
Catalog number: 26536
Epoch time:      100354.47458394
Element set:     115 
Inclination:       98.8052 deg
RA of node:       297.4165 deg
Eccentricity:    0.0011360
Arg of perigee:    26.6749 deg
Mean anomaly:     333.5519 deg
Mean motion:   14.10998417 rev/day
Decay rate:    2.7900E-006 rev/day^2
Epoch rev:            1255
Checksum:              321

Satellite: METEOR 2-16
Catalog number: 18312
Epoch time:      100334.93219369
Element set:     872 
Inclination:       82.5550 deg
RA of node:       141.6566 deg
Eccentricity:    0.0012451
Arg of perigee:   340.6184 deg
Mean anomaly:      19.4499 deg
Mean motion:   13.84264960 rev/day
Decay rate:    1.7800E-006 rev/day^2
Epoch rev:           67121
Checksum:              313

Satellite: METEOR 2-17
Catalog number: 18820
Epoch time:      100335.67547758
Element set:     381 
Inclination:       82.5441 deg
RA of node:       192.3102 deg
Eccentricity:    0.0017594
Arg of perigee:    37.6240 deg
Mean anomaly:     322.6155 deg
Mean motion:   13.84923695 rev/day
Decay rate:    3.1899E-006 rev/day^2
Epoch rev:           64877
Checksum:              342

